User: anonymous   Login
Location: Bojarzin Observatory
(39.7980°N, 89.7627°W)
Time: 22:32:02
(UTC-06:00)
Language:

ISS - Orbit

View from above orbital plane
View from above orbital plane
View from above satellite
View from above satellite

Ground track
Ground track

The orbit data is extracted from the following two-line orbital elements,

1 25544U 98067A   17053.12587036  .00016717  00000-0  10270-3 0  9027
2 25544  51.6379 251.8874 0006382 221.3419 138.7252 15.54420648  3852
Epoch (UTC): 22 February 2017 03:01:15
Eccentricity: 0.0006382
inclination: 51.6379°
perigee height: 399 km
apogee height: 408 km
right ascension of ascending node: 251.8874°
argument of perigee: 221.3419°
revolutions per day: 15.54420648
mean anomaly at epoch: 138.7252°
orbit number at epoch: 385

The dashed part of the orbit path shows where the satellite is in the earth's shadow,  

DLR